LOT6193 EPWA-VTSP

Flight info

Callsign LOT6193
Flight time N/A
Altitude 37000
Route XIMBA DCT OMAVA DCT ROBTU DCT KENIN DCT KARIL DCT ARGES DCT ARTAT UP975 ERGUN UL124 BONAM L124 ZAJ M715 PEKES L124 PG M638 KC G472 TELEM N893 AAE N895 NNP L524 ELBAB L510 IDKUT L645 SAPAM R203 UBNEN UBNEN1D
Aircraft B789/H-SDE1E2E3FGHIJ2J3J4J5M1RWXY/LB1D1

Departure

Time N/A
Airport Warsaw Chopin Airport (EPWA)

Arrival

Time 2026-05-04 08:19
Airport Phuket International Airport (VTSP)
Time Latitude Longitude Altitude Speed Heading
2026-05-04 07:19 8.20273 95.12787 36881 ft 506 kts 117°
2026-05-04 07:19 8.16975 95.19069 36882 ft 506 kts 117°
2026-05-04 07:20 8.13667 95.25369 36897 ft 511 kts 117°
2026-05-04 07:20 8.10333 95.31714 36890 ft 512 kts 117°
2026-05-04 07:22 8.00629 95.54532 36868 ft 514 kts 92°
2026-05-04 07:22 8.00709 95.58130 36887 ft 513 kts 88°
2026-05-04 07:23 8.00975 95.65326 36890 ft 513 kts 89°
2026-05-04 07:23 8.01193 95.72502 36885 ft 511 kts 89°
2026-05-04 07:24 8.01439 95.79675 36889 ft 512 kts 88°
2026-05-04 07:24 8.01668 95.86874 36886 ft 514 kts 89°
2026-05-04 07:26 8.02595 96.15616 36880 ft 513 kts 89°
2026-05-04 07:27 8.02823 96.22804 36875 ft 513 kts 89°
2026-05-04 07:27 8.03050 96.29994 36884 ft 513 kts 89°
2026-05-04 07:28 8.03275 96.37183 36878 ft 513 kts 89°
2026-05-04 07:28 8.03500 96.44371 36877 ft 512 kts 89°
2026-05-04 07:29 8.03723 96.51562 36881 ft 515 kts 89°
2026-05-04 07:29 8.03946 96.58782 36881 ft 515 kts 89°
2026-05-04 07:30 8.04166 96.65947 36879 ft 514 kts 89°
2026-05-04 07:30 8.04385 96.73148 36877 ft 513 kts 89°
2026-05-04 07:31 8.04604 96.80346 36878 ft 514 kts 89°
2026-05-04 07:33 8.05465 97.09136 36876 ft 514 kts 88°
2026-05-04 07:33 8.05677 97.16344 36871 ft 514 kts 88°
2026-05-04 07:34 8.05949 97.23543 36874 ft 514 kts 86°
2026-05-04 07:34 8.06320 97.30744 36872 ft 514 kts 88°
2026-05-04 07:35 8.06704 97.37934 36874 ft 512 kts 87°
2026-05-04 07:35 8.07091 97.45100 36872 ft 511 kts 87°
2026-05-04 07:36 8.07464 97.52278 36869 ft 513 kts 87°
2026-05-04 07:38 8.09408 97.81313 36854 ft 522 kts 75°
2026-05-04 07:38 8.12109 97.88048 36866 ft 522 kts 65°
2026-05-04 07:39 8.15006 97.94763 36867 ft 522 kts 68°
2026-05-04 07:39 8.17789 98.01564 36867 ft 528 kts 68°
2026-05-04 07:40 8.19364 98.08756 36845 ft 526 kts 85°
2026-05-04 07:40 8.19886 98.16124 36842 ft 527 kts 85°
2026-05-04 07:41 8.20681 98.23466 36832 ft 526 kts 84°
2026-05-04 07:41 8.21322 98.30823 36838 ft 526 kts 85°
2026-05-04 07:42 8.22032 98.38159 36833 ft 521 kts 84°
2026-05-04 07:42 8.22711 98.45425 36861 ft 521 kts 84°
2026-05-04 07:43 8.23123 98.52723 36856 ft 522 kts 94°
2026-05-04 07:43 8.21328 98.59777 36859 ft 522 kts 115°
2026-05-04 07:44 8.17140 98.65725 36858 ft 523 kts 136°
2026-05-04 07:44 8.11120 98.69767 36862 ft 523 kts 156°
2026-05-04 07:45 8.05283 98.71286 36861 ft 524 kts 174°
2026-05-04 07:45 8.01640 98.71321 36857 ft 524 kts 185°
2026-05-04 07:45 7.98057 98.70689 36859 ft 524 kts 195°
2026-05-04 07:46 7.94647 98.69411 36859 ft 523 kts 206°
2026-05-04 07:46 7.91525 98.67531 36861 ft 523 kts 216°
2026-05-04 07:46 7.86543 98.62231 36848 ft 523 kts 237°
2026-05-04 07:47 7.84850 98.58986 36853 ft 523 kts 248°
2026-05-04 07:47 7.83773 98.55489 36856 ft 523 kts 258°
2026-05-04 07:47 7.83345 98.51852 36852 ft 523 kts 269°
2026-05-04 07:49 7.95164 98.30071 36836 ft 521 kts 320°
2026-05-04 07:49 8.01118 98.25883 36830 ft 522 kts 328°
2026-05-04 07:50 8.07570 98.22548 36826 ft 522 kts 333°
2026-05-04 07:50 8.13824 98.18819 36830 ft 522 kts 327°
2026-05-04 07:51 8.20015 98.14998 36838 ft 522 kts 329°
2026-05-04 07:51 8.26693 98.12218 36834 ft 523 kts 347°
2026-05-04 07:52 8.30299 98.11770 36834 ft 524 kts 358°
2026-05-04 07:52 8.33932 98.11991 36844 ft 524 kts
2026-05-04 07:52 8.37469 98.12874 36846 ft 525 kts 19°
2026-05-04 07:52 8.40800 98.14394 36840 ft 526 kts 29°
2026-05-04 07:53 8.43797 98.16493 36842 ft 526 kts 40°
2026-05-04 07:54 8.49435 98.39891 36842 ft 520 kts 112°
2026-05-04 07:55 8.47703 98.43144 36841 ft 521 kts 123°
2026-05-04 07:55 8.45431 98.45992 36844 ft 522 kts 134°
2026-05-04 07:55 8.39589 98.50191 36851 ft 522 kts 155°
2026-05-04 07:56 8.32601 98.52018 36845 ft 522 kts 176°
2026-05-04 07:56 8.25416 98.51196 36841 ft 523 kts 197°
2026-05-04 07:57 8.18986 98.47839 36853 ft 524 kts 217°
2026-05-04 07:57 8.13509 98.43009 36826 ft 524 kts 229°
2026-05-04 07:58 8.11391 98.40027 36817 ft 524 kts 240°
2026-05-04 07:58 8.09847 98.36705 36814 ft 523 kts 250°
2026-05-04 07:58 8.08931 98.33162 36827 ft 522 kts 261°
2026-05-04 07:58 8.08671 98.29532 36824 ft 517 kts 271°
2026-05-04 07:59 8.10135 98.22461 36818 ft 519 kts 292°
2026-05-04 07:59 8.14041 98.16375 36829 ft 520 kts 313°
2026-05-04 08:00 8.19866 98.12103 36832 ft 521 kts 334°
2026-05-04 08:00 8.23263 98.10839 36827 ft 522 kts 345°
2026-05-04 08:02 8.45437 98.19736 36840 ft 526 kts 58°
2026-05-04 08:02 8.48441 98.26460 36869 ft 526 kts 68°
2026-05-04 08:03 8.50791 98.33453 36851 ft 526 kts 77°
2026-05-04 08:03 8.51497 98.40738 36848 ft 518 kts 90°
2026-05-04 08:04 8.51407 98.48030 36858 ft 520 kts 90°
2026-05-04 08:04 8.51298 98.51666 36804 ft 507 kts 95°
2026-05-04 08:04 8.50757 98.55018 35634 ft 479 kts 103°
2026-05-04 08:05 8.49663 98.58180 33861 ft 476 kts 115°
2026-05-04 08:05 8.47951 98.61086 32078 ft 496 kts 126°
2026-05-04 08:05 8.45607 98.63699 30700 ft 507 kts 137°
2026-05-04 08:05 8.42738 98.65843 29712 ft 504 kts 149°
2026-05-04 08:06 8.39641 98.67312 29009 ft 495 kts 160°
2026-05-04 08:06 8.36330 98.68112 28858 ft 487 kts 172°
2026-05-04 08:06 8.32914 98.68233 28866 ft 499 kts 182°
2026-05-04 08:06 8.29459 98.67689 28858 ft 506 kts 193°
2026-05-04 08:08 8.13288 98.50747 24246 ft 485 kts 255°
2026-05-04 08:08 8.12487 98.47466 23375 ft 478 kts 253°
2026-05-04 08:10 7.91739 98.37595 13596 ft 437 kts 150°
2026-05-04 08:11 7.89448 98.39397 11921 ft 400 kts 132°
2026-05-04 08:11 7.87515 98.44388 8243 ft 387 kts 94°
2026-05-04 08:11 7.87483 98.47055 6772 ft 383 kts 89°
2026-05-04 08:12 7.87613 98.49687 5530 ft 356 kts 86°
2026-05-04 08:12 7.87789 98.52047 4524 ft 322 kts 84°
2026-05-04 08:12 7.88501 98.54171 3618 ft 333 kts 59°
2026-05-04 08:12 7.90151 98.55767 2984 ft 327 kts 31°
2026-05-04 08:13 7.92285 98.56371 2959 ft 319 kts
2026-05-04 08:13 7.94525 98.56438 3021 ft 326 kts 359°
2026-05-04 08:13 7.96772 98.56172 3030 ft 324 kts 352°
2026-05-04 08:13 7.98999 98.55797 3028 ft 324 kts 351°
2026-05-04 08:14 8.01217 98.55396 3036 ft 326 kts 350°
2026-05-04 08:14 8.03312 98.55005 3013 ft 286 kts 350°
2026-05-04 08:14 8.05207 98.54577 2986 ft 280 kts 341°
2026-05-04 08:16 8.11619 98.43923 3037 ft 254 kts 287°
2026-05-04 08:16 8.12079 98.42302 2978 ft 231 kts 281°
2026-05-04 08:16 8.12053 98.40781 2956 ft 207 kts 263°
2026-05-04 08:17 8.11945 98.39337 2415 ft 205 kts 266°
2026-05-04 08:17 8.11919 98.37930 1894 ft 195 kts 267°
2026-05-04 08:17 8.11852 98.36590 1157 ft 186 kts 259°
2026-05-04 08:17 8.11674 98.35384 785 ft 163 kts 263°
2026-05-04 08:19 8.11220 98.30614 33 ft 29 kts 264°
2026-05-04 08:19 8.11186 98.30520 33 ft 3 kts 199°
2026-05-04 08:20 8.11144 98.30516 33 ft 11 kts 186°
2026-05-04 08:20 8.11069 98.30499 33 ft 0 kts 194°
2026-05-04 08:21 8.11069 98.30498 33 ft 2 kts 194°
2026-05-04 08:22 8.10938 98.30463 33 ft 24 kts 194°
2026-05-04 08:22 8.10782 98.30424 32 ft 23 kts 194°
2026-05-04 08:24 8.10595 98.30410 32 ft 6 kts 98°
2026-05-04 08:24 8.10585 98.30455 33 ft 6 kts 105°
2026-05-04 08:24 8.10583 98.30460 33 ft 0 kts 105°